Gainesville, TX

7:19 AM CST on November 19, 2019 (GMT -0600)
Gainesville Municipal

Weather History for KGLE - October, 2019

Change the Weather History Date:

Friday, October 18, 2019

  Actual Average (WUND) Record (WUND)
Temperature  
Mean Temperature 60 °F -  
Max Temperature 74 °F - - (-1)
Min Temperature 46 °F - - (-1)
Degree Days  
Heating Degree Days 5    
Growing Degree Days 10 (Base 50)    
Moisture  
Dew Point 44 °F    
Average Humidity 63    
Maximum Humidity 97    
Minimum Humidity 25    
Precipitation  
Precipitation 0.00 in - - ()
Sea Level Pressure  
Sea Level Pressure 29.84 in    
Wind  
Wind Speed 4 mph (SSE)    
Max Wind Speed 16 mph    
Max Gust Speed 24 mph    
Visibility 10 miles    
Events      
Averages and records for this station are not official NWS values.
T = Trace of Precipitation, MM = Missing Value Source: NWS Daily Summary

Daily Weather History Graph

Daily Weather History Graph

Search for Another Location

Airport or City:

Astronomy

Oct. 18, 2019 Rise Set
Actual Time 7:35 AM CDT 6:51 PM CDT
Civil Twilight 7:10 AM CDT 7:16 PM CDT
Nautical Twilight 6:41 AM CDT 7:45 PM CDT
Astronomical Twilight 6:12 AM CDT 8:14 PM CDT
Moon 10:20 PM CDT (10/18) 11:59 AM CDT (10/18)
Length of Visible Light 12h 06m
Length of Day
11h 15m
Waning Gibbous, 78% of the Moon is Illuminated
Oct 18
Waning Gibbous
Oct 21
Last Quarter
Oct 27
New
Nov 4
First Quarter
Nov 12
Full

Hourly Weather History & Observations

Time (CDT) Temp. Dew Point Humidity Pressure Visibility Wind Dir Wind Speed Gust Speed Precip Events Conditions
12:15 AM 49.1 °F 45.5 °F 87% 29.93 in 10.0 mi Calm Calm - N/A   Clear
12:35 AM 50.0 °F 46.4 °F 87% 29.92 in 10.0 mi SSE 3.5 mph - N/A   Clear
12:55 AM 49.8 °F 46.0 °F 87% 29.92 in 10.0 mi Calm Calm - N/A   Clear
1:15 AM 50.0 °F 46.8 °F 89% 29.92 in 10.0 mi Calm Calm - N/A   Clear
1:35 AM 49.6 °F 46.8 °F 90% 29.91 in 10.0 mi Calm Calm - N/A   Clear
1:55 AM 49.3 °F 46.6 °F 90% 29.92 in 10.0 mi Calm Calm - N/A   Clear
2:15 AM 50.0 °F 46.9 °F 89% 29.92 in 10.0 mi Calm Calm - N/A   Clear
2:35 AM 49.1 °F 46.4 °F 90% 29.92 in 10.0 mi Calm Calm - N/A   Clear
2:55 AM 48.0 °F 45.9 °F 92% 29.92 in 10.0 mi Calm Calm - N/A   Clear
3:15 AM 47.3 °F 45.5 °F 93% 29.92 in 10.0 mi Calm Calm - N/A   Clear
3:35 AM 46.9 °F 45.7 °F 95% 29.92 in 10.0 mi Calm Calm - N/A   Clear
3:55 AM 47.7 °F 45.9 °F 93% 29.91 in 10.0 mi SSE 6.9 mph - N/A   Clear
4:35 AM 47.7 °F 45.9 °F 93% 29.92 in 10.0 mi South 3.5 mph - N/A   Clear
4:55 AM 46.9 °F 45.1 °F 93% 29.92 in 10.0 mi Calm Calm - N/A   Clear
5:15 AM 46.8 °F 45.1 °F 94% 29.92 in 10.0 mi SSE 5.8 mph - N/A   Clear
5:35 AM 47.3 °F 46.0 °F 95% 29.92 in 10.0 mi SE 5.8 mph - N/A   Clear
5:55 AM 47.5 °F 46.2 °F 95% 29.92 in 10.0 mi Calm Calm - N/A   Clear
6:15 AM 46.9 °F 45.9 °F 96% 29.92 in 10.0 mi Calm Calm - N/A   Clear
6:35 AM 46.8 °F 45.7 °F 96% 29.92 in 10.0 mi Calm Calm - N/A   Clear
6:55 AM 47.8 °F 46.9 °F 97% 29.92 in 10.0 mi Calm Calm - N/A   Clear
7:15 AM 48.2 °F 47.1 °F 96% 29.92 in 10.0 mi Calm Calm - N/A   Clear
7:35 AM 48.0 °F 46.6 °F 95% 29.92 in 10.0 mi Calm Calm - N/A   Clear
7:55 AM 47.5 °F 46.6 °F 97% 29.91 in 7.0 mi Calm Calm - N/A   Clear
8:15 AM 48.2 °F 47.3 °F 97% 29.92 in 7.0 mi Calm Calm - N/A   Clear
8:30 AM 49.1 °F 48.2 °F 97% 29.92 in 7.0 mi Calm Calm - N/A   Clear
9:15 AM 53.8 °F 50.9 °F 90% 29.93 in 10.0 mi SSE 6.9 mph - N/A   Clear
9:35 AM 55.6 °F 51.4 °F 86% 29.93 in 10.0 mi SSE 5.8 mph - N/A   Clear
9:55 AM 57.6 °F 50.9 °F 78% 29.93 in 10.0 mi South 10.4 mph - N/A   Clear
10:15 AM 59.2 °F 50.2 °F 72% 29.92 in 10.0 mi SSE 10.4 mph - N/A   Clear
10:35 AM 61.0 °F 48.7 °F 64% 29.91 in 10.0 mi SSE 10.4 mph - N/A   Clear
10:55 AM 61.9 °F 48.4 °F 61% 29.91 in 10.0 mi SSE 8.1 mph - N/A   Clear
11:15 AM 62.8 °F 48.4 °F 59% 29.90 in 10.0 mi SSE 11.5 mph - N/A   Clear
11:35 AM 63.9 °F 46.9 °F 54% 29.90 in 10.0 mi SSE 11.5 mph - N/A   Clear
11:55 AM 65.8 °F 46.8 °F 50% 29.89 in 10.0 mi South 9.2 mph 17.3 mph N/A   Clear
12:15 PM 66.9 °F 45.3 °F 46% 29.88 in 10.0 mi SSE 11.5 mph - N/A   Clear
12:35 PM 67.8 °F 45.1 °F 44% 29.87 in 10.0 mi South 10.4 mph 16.1 mph N/A   Clear
12:55 PM 69.3 °F 44.6 °F 41% 29.87 in 10.0 mi SSE 6.9 mph 10.4 mph N/A   Clear
1:15 PM 70.5 °F 44.4 °F 39% 29.85 in 10.0 mi SSE 11.5 mph - N/A   Clear
1:35 PM 70.7 °F 44.1 °F 38% 29.82 in 10.0 mi SSE 10.4 mph 18.4 mph N/A   Clear
1:55 PM 71.4 °F 43.2 °F 36% 29.82 in 10.0 mi South 12.7 mph 18.4 mph N/A   Clear
2:15 PM 72.3 °F 41.2 °F 32% 29.80 in 10.0 mi SSE 8.1 mph 19.6 mph N/A   Clear
2:35 PM 73.6 °F 39.9 °F 30% 29.79 in 10.0 mi SSE 16.1 mph 24.2 mph N/A   Clear
2:55 PM 73.4 °F 38.5 °F 28% 29.78 in 10.0 mi SE 12.7 mph 19.6 mph N/A   Clear
3:15 PM 73.6 °F 37.4 °F 27% 29.76 in 10.0 mi SSE 11.5 mph - N/A   Clear
3:35 PM 74.1 °F 36.3 °F 25% 29.76 in 10.0 mi SSE 15.0 mph 18.4 mph N/A   Clear
3:55 PM 74.7 °F 38.1 °F 27% 29.75 in 10.0 mi SSE 12.7 mph 18.4 mph N/A   Clear
4:15 PM 74.1 °F 37.8 °F 27% 29.75 in 10.0 mi SE 12.7 mph 19.6 mph N/A   Clear
4:35 PM 74.1 °F 38.1 °F 27% 29.76 in 10.0 mi SE 10.4 mph - N/A   Clear
4:55 PM 74.1 °F 39.0 °F 28% 29.75 in 10.0 mi SSE 10.4 mph - N/A   Clear
5:15 PM 73.8 °F 39.0 °F 28% 29.75 in 10.0 mi SE 9.2 mph - N/A   Clear
5:35 PM 73.0 °F 39.4 °F 30% 29.74 in 10.0 mi SSE 10.4 mph - N/A   Clear
5:55 PM 72.5 °F 39.4 °F 30% 29.73 in 10.0 mi SE 10.4 mph - N/A   Clear
6:15 PM 71.1 °F 39.7 °F 32% 29.73 in 10.0 mi SSE 8.1 mph - N/A   Clear
6:35 PM 69.1 °F 40.1 °F 35% 29.73 in 10.0 mi SSE 3.5 mph - N/A   Clear
6:55 PM 65.5 °F 40.3 °F 40% 29.74 in 10.0 mi Calm Calm - N/A   Clear
7:15 PM 63.5 °F 41.2 °F 44% 29.73 in 10.0 mi SE 5.8 mph - N/A   Clear
7:35 PM 63.3 °F 41.4 °F 45% 29.73 in 10.0 mi SE 6.9 mph - N/A   Clear
7:55 PM 63.7 °F 41.2 °F 44% 29.74 in 10.0 mi SSE 3.5 mph - N/A   Clear
8:15 PM 62.1 °F 41.5 °F 47% 29.74 in 10.0 mi SSE 3.5 mph - N/A   Clear
8:35 PM 61.0 °F 41.5 °F 49% 29.74 in 10.0 mi SE 4.6 mph - N/A   Clear
8:55 PM 59.9 °F 41.9 °F 51% 29.74 in 10.0 mi SE 6.9 mph - N/A   Scattered Clouds
9:15 PM 59.9 °F 41.5 °F 51% 29.75 in 10.0 mi SE 3.5 mph - N/A   Scattered Clouds
9:55 PM 60.4 °F 42.8 °F 52% 29.74 in 10.0 mi SE 9.2 mph - N/A   Clear
10:15 PM 61.3 °F 42.6 °F 50% 29.74 in 10.0 mi SSE 8.1 mph - N/A   Clear
10:35 PM 59.9 °F 42.8 °F 53% 29.75 in 10.0 mi SE 5.8 mph - N/A   Clear
10:55 PM 59.2 °F 43.2 °F 55% 29.74 in 10.0 mi SE 4.6 mph - N/A   Clear
11:15 PM 59.0 °F 43.3 °F 56% 29.74 in 10.0 mi SE 5.8 mph - N/A   Clear
11:35 PM 58.6 °F 43.7 °F 58% 29.73 in 10.0 mi SE 5.8 mph - N/A   Clear
11:55 PM 59.2 °F 44.2 °F 58% 29.72 in 10.0 mi SE 6.9 mph - N/A   Clear